Regional Weather Roundup
Issued by NWS Little Rock, AR

Home | Current Version | Previous Version | Text Only | Print | Product List | Glossary Off
Versions: 1 2 3 4 5 6 7 8 9 10 11 12 13 14 15 16 17 18 19 20 21 22 23 24 25 26 27 28 29 30 31 32 33 34 35 36 37 38 39 40 41 42 43 44 45 46 47 48 49 50

000
ASUS44 KLZK 281605
RWRLZK

WEATHER ROUNDUP FOR ARKANSAS
NATIONAL WEATHER SERVICE LITTLE ROCK AR
1100 AM CDT SAT MAR 28 2015

NOTE: "FAIR" INDICATES FEW OR NO CLOUDS BELOW 12,000 FEET WITH NO
SIGNIFICANT WEATHER AND/OR OBSTRUCTIONS TO VISIBILITY.

ARZ001-003-010-029-281700-
NORTHWEST ARKANSAS

CITY           SKY/WX    TMP DP  RH WIND       PRES   REMARKS
FAYETTEVILLE   PTSUNNY   48  38  68 VRB6      30.13S
FORT SMITH     CLOUDY    49  37  63 E13       30.15R
HARRISON       CLOUDY    41  32  70 E15       30.20R
BENTONVILLE    PTSUNNY   48  36  61 E12       30.14R
ROGERS         MOSUNNY   46  37  71 E14       30.14R
SILOAM SPGS    PTSUNNY   52  37  58 S7        30.13R
HIGHFILL       PTSUNNY   49  38  65 E7        30.12R
SPRINGDALE     MOSUNNY   46  37  71 E12       30.16R
$$

ARZ004-005-016-281700-
NORTH CENTRAL ARKANSAS

CITY           SKY/WX    TMP DP  RH WIND       PRES   REMARKS
BATESVILLE     CLOUDY    39  25  56 E10       30.31R
FLIPPIN        CLOUDY    39  27  60 E10       30.24F
MTN HOME       LGT SNOW  37  28  70 SE9       30.24R
$$

ARZ040-041-281700-
WEST CENTRAL ARKANSAS

CITY           SKY/WX    TMP DP  RH WIND       PRES   REMARKS
MENA           PTSUNNY   52  39  62 N3        30.16F
MOUNT IDA      CLOUDY    47  38  71 SE7       30.15F
$$

ARZ009-017-025-026-028-281700-
NORTHEAST ARKANSAS

CITY           SKY/WX    TMP DP  RH WIND       PRES   REMARKS
CORNING          N/A     37  32  81 SW6       30.34R
JONESBORO      LGT SNOW  34  32  92 E7        30.34R FOG     WCI  28
NEWPORT        LGT RAIN  38  30  73 E9        30.34R
BLYTHEVILLE    CLOUDY    41  24  51 CALM      30.33R
$$

ARZ022-023-033-042-044-281700-
CENTRAL ARKANSAS

CITY           SKY/WX    TMP DP  RH WIND       PRES   REMARKS
LITTLE ROCK    LGT RAIN  42  36  79 E10       30.29R
N LITTLE ROCK  CLOUDY    39  38  94 E8        30.29R
JACKSONVILLE   LGT RAIN  42  33  71 E8        30.29R
SEARCY         CLOUDY    42  28  57 E7        30.33R
HOT SPRINGS    CLOUDY    49  38  65 SE8       30.20F
RUSSELLVILLE   CLOUDY    42  39  89 E10       30.23S
CLINTON        CLOUDY    41  32  70 E7        30.28F
$$

ARZ036-281700-
EAST ARKANSAS

CITY           SKY/WX    TMP DP  RH WIND       PRES   REMARKS
WEST MEMPHIS   CLOUDY    40  24  53 E5        30.33R
$$

ARZ050-053-066-070-073-281700-
SOUTHWEST ARKANSAS

CITY           SKY/WX    TMP DP  RH WIND       PRES   REMARKS
ARKADELPHIA    FAIR      50  42  73 E5        30.24F
CAMDEN         CLOUDY    54  39  58 MISG      30.24S
TEXARKANA      CLOUDY    52  40  63 S10       30.18S
EL DORADO      CLOUDY    51  39  63 SE9       30.23S
DE QUEEN       CLOUDY    50  42  74 E7        30.18R
$$

ARZ056-057-069-281700-
SOUTHEAST ARKANSAS

CITY           SKY/WX    TMP DP  RH WIND       PRES   REMARKS
PINE BLUFF     LGT RAIN  44  37  76 SE12      30.27R
STUTTGART      CLOUDY    43  28  56 E13       30.29R
MONTICELLO     CLOUDY    46  38  73 SE6       30.26R

$$





USA.gov is the U.S. government's official web portal to all federal, state and local government web resources and services.